sat.trackr.live / text

‹ back to catalog

GALAXY 30 (WAAS/PRN 135)

NORAD 46114 · 2020-056C

PAYLOAD ACTIVE UNKNOWN

§ Identity

Operator
Country
US
Launch date
2020-08-15
Launch site
FRGUI
Launch vehicle
Mass (kg)
RCS (m²)

Purposes: comms, nav

External: N2YO · Heavens-Above · Gunter

§ Orbital elements

Epoch: 2026-09-20T03:48:44.112960Z

Period
1,436.11 min
Inclination
0.0218°
Eccentricity
0.0002334
Mean motion
1.00270792 rev/d
Perigee alt
35,777.0 km
Apogee alt
35,796.7 km
Semi-major
42,165.0 km
B*
0.0000e+0
RAAN
161.7114°
Arg perigee
12.3430°
Mean anomaly
117.1816°
Rev number
2,224

§ Raw data

GALAXY 30 (WAAS/PRN 135)1 46114U 20056C   26263.15884390  .00000000  00000+0  00000+0 0  99942 46114   0.0218 161.7114 0002334  12.3430 117.1816  1.00270792 22248

JSON: /api/v1/satellites/46114 · /tle

For live sub-satellite position, see the globe view (requires WebGL).

§ Visibility from observer

Set your observer location to see the next 7 days of passes ≥ 10°. The values pass through the URL so the page stays shareable.

No JS? Fill the form by hand. The geolocation button needs JavaScript.